Regional Weather Roundup
Issued by NWS

Home | Current Version | Previous Version | Graphics & Text | Print | Product List | Glossary On
Versions: 1 2 3 4 5 6 7 8 9 10 11 12 13 14 15 16 17 18 19 20 21 22 23 24 25 26 27 28 29 30 31 32 33 34 35 36 37 38 39 40 41 42 43 44 45 46 47 48 49 50
867
ASUS45 KTFX 231310
RWRMT
MONTANA REGIONAL WEATHER ROUNDUP
NATIONAL WEATHER SERVICE GREAT FALLS MT
700 AM MDT SAT JUL 23 2016

NOTE: "FAIR" INDICATES FEW OR NO CLOUDS BELOW 12000 FEET WITH NO
SIGNIFICANT WEATHER AND/OR OBSTRUCTIONS TO VISIBILITY.

MTZ001>007-043-231400-
WEST OF THE DIVIDE

CITY           SKY/WX    TMP DP  RH WIND       PRES   REMARKS
KALISPELL      PTCLDY    51  48  89 VRB6      30.13S
MISSOULA       CLEAR     55  46  71 N3        30.18R
BUTTE          CLEAR     44  37  76 E6        30.25R
MULLAN PASS    PTCLDY    46  42  86 VRB3      30.24R
ANACONDA         N/A     57  36  44 SW6       30.23R
DEER LODGE       N/A     52  41  66 CALM      30.24R
EUREKA           N/A     52  46  82 CALM      30.13R
HAMILTON         N/A     54  43  66 CALM      30.20R
LIBBY            N/A     45  45 100 CALM      30.16R
RONAN            N/A     56  49  77 E1        30.19R
$$

MTZ008-052>055-231400-
SOUTHWEST MONTANA

CITY           SKY/WX    TMP DP  RH WIND       PRES   REMARKS
BOZEMAN        CLEAR     54  44  69 CALM      30.17R
DILLON         CLEAR     50  40  68 SW10      30.20R
W YELLOWSTONE  CLEAR     39  27  60 CALM      30.26R
ENNIS          CLEAR     52  41  66 CALM      30.25R
THREE FORKS      N/A     50  39  65 CALM      30.13S
$$

MTZ009-010-012-014-046-048-049-054-231400-
EAST SLOPES AND CENTRAL MONTANA

CITY           SKY/WX    TMP DP  RH WIND       PRES   REMARKS
CUT BANK       CLEAR     58  43  57 W17       30.03R
GREAT FALLS    CLEAR     58  42  55 S9        30.04R
MALMSTROM AFB  CLEAR     62  42  47 SW16      30.02R
HELENA         CLEAR     64  39  39 W10G18    30.14R
CHOTEAU          N/A     63  39  42 W20G26    30.04R
CONRAD           N/A     60  46  59 MISG      30.02R
$$

MTZ011-013-016-021-045-047-050-051-231400-
NORTH CENTRAL MONTANA

CITY           SKY/WX    TMP DP  RH WIND       PRES   REMARKS
HAVRE            N/A    N/A N/A N/A MISG      29.90R
LEWISTOWN      SUNNY     59  40  49 SW15      30.03R
N BAR RANCH      N/A     61  36  39 W13G20    30.05R
CHINOOK          N/A     63  45  51 SW9       29.89R
$$

MTZ017>020-022>027-061-062-231400-
NORTHEAST MONTANA

CITY           SKY/WX    TMP DP  RH WIND       PRES   REMARKS
GLASGOW        CLOUDY    63  52  67 W18G28    29.87R
JORDAN           N/A     60  52  74 W8        29.93R
SIDNEY         SUNNY     68  62  81 W9        29.84R
WOLF POINT     CLOUDY    67  57  70 SW13      29.86R
PLENTYWOOD       N/A     66  63  88 SW10G17   29.81S
POPLAR           N/A     64  59  82 W10       29.85R
$$

MTZ028>42-056>058-231400-
SOUTHCENTRAL AND SOUTHEAST MONTANA

CITY           SKY/WX    TMP DP  RH WIND       PRES   REMARKS
BAKER          SUNNY     64  61  90 W14       29.87R
BILLINGS       MOSUNNY   65  44  46 SW7       30.04R
LIVINGSTON     CLEAR     61  38  42 NW14      30.12S
MILES CITY     PTSUNNY   68  50  52 W15       29.93R
EKALAKA          N/A     65  59  81 W13       29.91R
FORSYTH          N/A     66  48  52 W9        29.96R
LAUREL           N/A     62  43  49 CALM      30.03S
ROUNDUP          N/A     64  37  36 W17       29.92S
$$

REGIONAL REPORTS...DAKOTAS

CITY           SKY/WX    TMP DP  RH WIND       PRES   REMARKS
WILLISTON      CLOUDY    67  63  87 S5        29.83R
MINOT          TSTM      67  64  90 SE10      29.82F
DICKINSON      MOSUNNY   65  61  87 E6        29.80F
BEACH            N/A     63  63 100 NW6       29.90R
CROSBY         PTSUNNY   66  66 100 S9        29.82S
WATFORD CITY     N/A    N/A N/A N/A MISG        N/A
BISMARCK       TSTM      66  65  96 VRB5      29.79R
GRAND FORKS    CLOUDY    69  65  86 CALM      29.85R
FARGO          CLOUDY    74  62  66 SE12      29.81F
BUFFALO SD       N/A     70  62  76 W16       29.76R
RAPID CITY     SUNNY     69  59  70 E3        29.84R
$$

REGIONAL REPORTS...WYOMING/IDAHO/WASHINGTON

CITY           SKY/WX    TMP DP  RH WIND       PRES   REMARKS
GILLETTE       SUNNY     64  48  56 NW20      30.03S
SHERIDAN       SUNNY     67  42  40 NW6       30.06S
BUFFALO WY     SUNNY     65  40  39 N14G24    30.10R
CODY           CLEAR     61  43  51 W5        30.13S
YELLOWSTONE LA   N/A     39  28  64 CALM      30.33R
IDAHO FALLS    CLEAR     53  39  59 SW9       30.18R
SALMON         PTCLDY    54  37  54 S6        30.19S
BOISE          CLEAR     57  41  55 S3        30.15R
SPOKANE        MOCLDY    51  45  79 S7        30.16R
$$

REGIONAL REPORTS...ALBERTA

CITY           SKY/WX    TMP DP  RH WIND       PRES   REMARKS
EDMONTON       MOSUNNY   59  50  72 W7        29.89S
CALGARY        PTCLDY    55  50  82 VRB2      29.99R
LETHBRIDGE     PTCLDY    59  52  77 W20G25    29.99R
MEDICINE HAT   MOSUNNY   55  50  82 W3        29.87R
WATERTON GATE    N/A     57  43  58 SW21G30     N/A
ONEFOUR          N/A     61  45  55 W30G38      N/A
$$

REGIONAL REPORTS...SASKATCHEWAN

CITY           SKY/WX    TMP DP  RH WIND       PRES   REMARKS
SWIFT CURRENT  MOSUNNY   57  55  94 W14G26    29.78R
REGINA         LGT RAIN  66  64  94 S17G23    29.68F
SASKATOON      PTSUNNY   63  63 100 NE9       29.73F
ROCKGLEN         N/A     59  57  94 W14         N/A
$$




USA.gov is the U.S. government's official web portal to all federal, state and local government web resources and services.